OPS 4682 DEB, 38436

Orbit data source: Space-Track

OPS 4682 DEB, 38436 is space debris in LEO originally from a launch on Sat, 03 Apr 1965 UTC launched from the Air Force Western Test Range (AFWTR). Debris objects in space refer to the collection of defunct objects orbiting the Earth. Examples of debris include non-operational satellites, rocket bodies, and fragments generated from explosions, collisions, or faulty payload assembly.

Loading next visibility...
Identifier
38436, 1965-027ER
Orbit
LEO
Country
Flag of USUS
Related business
Manufacturer
Unknown
Mission
Spacecraft
Bus & Motor
Unknown
Mass
Unknown
Launch date (UTC)
1965-04-03 (61 years ago)
Launch vehicle
Unknown
Launch site
Air Force Western Test Range (AFWTR)
Object type
Payload
Rocket body
Debris
Shape & HBR
Unknown shape, 0.1 m
Radar Cross Section
Small (<0.1 m²)

Expand to show TLE details & history
Last TLE update: 1 day ago

TLE from 1 day ago
0 OPS 4682 DEB
1 38436U 65027ER  25348.74991142 -.00000357  00000-0 -12141-2 0  9991
2 38436  90.2408 358.7492 0027128  65.8057 294.5897 12.99852106591460
Epoch: 2025-12-14T17:59Z
TLE epoch observation values (Epoch: 2025-12-14T17:59:52.346Z)
Latitude
0.00003°
Longitude
5.12274°
Altitude
1,256.969 km
Speed
7.231 km/s
True Right ascension
23h 54m 59s
True Declination
0° 00' 00"
Sunlit
Object was in daylight at epoch
Visualization orbit readout
Latitude
Unknown
Longitude
Unknown
Altitude
Unknown
Speed
Unknown
Apparent Right ascension
Unknown
Apparent Declination
Unknown
Sunlit
N/A
Visualization observer readout
Local Sidereal Time
16:52:01
Azimuth
Unknown
Elevation
Unknown
Doppler factor
Unknown
Orbital elements
Apogee altitude
1,280.514 km
Perigee altitude
1,239.073 km
Semi-major axis
7,637.93 km
Eccentricity
0.00271
Inclination
90.2408°
RAAN
358.7492°
Arg. of periapsis
65.8057°
True anomaly
294.30663°
Mean anomaly
294.5897°
Eccentric anomaly
294.4482°
Mean motion
3.25147 °/min
Orbital period
110.72 mins
BSTAR
-0.0012141
Loading maneuver chart data...
Computing Atmospheric mass density...
Loading historical data...
Loading historical data...
Loading historical data...
Loading historical data...
Loading historical data...
Loading historical data...
Loading historical data...

Documentation

Showing up to 5 results
|